This is the latest recevied weather packets stored in our database for station/object JS2WAD-13. If no packets are shown the sender has not sent any weather packets the latest 10 day(s).
| Time | Temp. | Humidity | Pressure | Rain* | Wind** | Luminosity | Snow |
|---|---|---|---|---|---|---|---|
| 1777742492 | 18.33° C | 71% | 903.6 hPa | 0 mm | - | 0 W/m² | - |
| 1777742192 | 18.89° C | 72% | 903.6 hPa | 0 mm | - | 0 W/m² | - |
| 1777741592 | 18.89° C | 72% | 903.6 hPa | 0 mm | - | 0 W/m² | - |
| 1777741292 | 18.89° C | 71% | 903.6 hPa | 0 mm | - | 0 W/m² | - |
| 1777740392 | 18.89° C | 70% | 903.5 hPa | 0 mm | - | 0 W/m² | - |
| 1777739792 | 18.89° C | 61% | 903.6 hPa | 0 mm | - | 0 W/m² | - |
| 1777739192 | 18.89° C | 69% | 903.5 hPa | 0 mm | - | 0 W/m² | - |
| 1777738892 | 18.89° C | 61% | 903.5 hPa | 0 mm | - | 0 W/m² | - |
| 1777738592 | 18.89° C | 63% | 903.6 hPa | 0 mm | - | 0 W/m² | - |
| 1777738292 | 18.89° C | 64% | 903.6 hPa | 0 mm | - | 0 W/m² | - |
| 1777737992 | 18.89° C | 65% | 903.6 hPa | 0 mm | - | 0 W/m² | - |
| 1777737692 | 18.89° C | 65% | 903.6 hPa | 0 mm | - | 0 W/m² | - |
| 1777737092 | 19.44° C | 63% | 903.9 hPa | 0 mm | - | 0 W/m² | - |
| 1777736792 | 19.44° C | 64% | 904 hPa | 0 mm | - | 0 W/m² | - |
| 1777736192 | 19.44° C | 63% | 904.1 hPa | 0 mm | - | 0 W/m² | - |
| 1777735892 | 19.44° C | 62% | 904.1 hPa | 0 mm | - | 0 W/m² | - |
| 1777735592 | 19.44° C | 63% | 904.1 hPa | 0 mm | - | 0 W/m² | - |
| 1777735292 | 19.44° C | 64% | 904.1 hPa | 0 mm | - | 0 W/m² | - |
| 1777734992 | 19.44° C | 64% | 904.1 hPa | 0 mm | - | 0 W/m² | - |
| 1777734692 | 20° C | 63% | 904.2 hPa | 0 mm | - | 0 W/m² | - |
| 1777734392 | 20° C | 61% | 904.3 hPa | 0 mm | - | 0 W/m² | - |
| 1777734092 | 20° C | 61% | 904.3 hPa | 0 mm | - | 0 W/m² | - |
| 1777733792 | 20° C | 61% | 904.4 hPa | 0 mm | - | 0 W/m² | - |
| 1777733492 | 20° C | 59% | 904.2 hPa | 0 mm | - | 0 W/m² | - |
| 1777732892 | 20° C | 61% | 904.2 hPa | 0 mm | - | 0 W/m² | - |
* Rain latest hour (hover to see other rain measurements)
** Current wind speed in m/s (hover to see current wind gust speed)